Time,TemperatureF,DewpointF,PressureIn,WindDirection,WindDirectionDegrees,WindSpeedMPH,WindSpeedGustMPH,Humidity,HourlyPrecipIn,Conditions,Clouds,dailyrainin,SoftwareType,DateUTC
2013-10-21 00:15:00,41.7,36.0,30.02,NW,305,0.0,1.0,80,0.00,,,0.00,weatherlink.com 1.10,2013-10-21 04:15:00,
2013-10-21 00:31:00,40.4,36.0,30.02,WNW,301,0.0,1.0,84,0.00,,,0.00,weatherlink.com 1.10,2013-10-21 04:31:00,
2013-10-21 00:48:00,41.4,36.0,30.02,SSW,211,1.0,4.0,82,0.00,,,0.00,weatherlink.com 1.10,2013-10-21 04:48:00,
2013-10-21 01:04:00,42.4,36.0,30.02,NW,320,0.0,4.0,79,0.00,,,0.00,weatherlink.com 1.10,2013-10-21 05:04:00,
2013-10-21 01:20:00,41.7,36.0,30.02,West,270,0.0,5.0,80,0.00,,,0.00,weatherlink.com 1.10,2013-10-21 05:20:00,
2013-10-21 01:36:00,42.8,36.0,30.02,WSW,256,3.0,6.0,78,0.00,,,0.00,weatherlink.com 1.10,2013-10-21 05:36:00,
2013-10-21 01:53:00,43.3,37.0,30.02,WSW,252,2.0,4.0,77,0.00,,,0.00,weatherlink.com 1.10,2013-10-21 05:53:00,
2013-10-21 02:09:00,43.7,37.0,30.02,WSW,238,1.0,7.0,77,0.00,,,0.00,weatherlink.com 1.10,2013-10-21 06:09:00,
2013-10-21 02:25:00,43.9,37.0,30.03,WSW,255,4.0,5.0,76,0.00,,,0.00,weatherlink.com 1.10,2013-10-21 06:25:00,
2013-10-21 02:42:00,42.8,36.0,30.02,WNW,291,0.0,5.0,78,0.00,,,0.00,weatherlink.com 1.10,2013-10-21 06:42:00,
2013-10-21 02:58:00,42.5,37.0,30.03,WNW,282,0.0,4.0,80,0.00,,,0.00,weatherlink.com 1.10,2013-10-21 06:58:00,
2013-10-21 03:14:00,41.6,37.0,30.03,SSW,211,4.0,4.0,82,0.00,,,0.00,weatherlink.com 1.10,2013-10-21 07:14:00,
2013-10-21 03:30:00,42.7,37.0,30.03,WSW,247,2.0,6.0,80,0.00,,,0.00,weatherlink.com 1.10,2013-10-21 07:30:00,
2013-10-21 03:47:00,43.4,37.0,30.04,West,264,2.0,5.0,79,0.00,,,0.00,weatherlink.com 1.10,2013-10-21 07:47:00,
2013-10-21 04:03:00,43.5,37.0,30.04,SW,230,4.0,7.0,78,0.00,,,0.00,weatherlink.com 1.10,2013-10-21 08:03:00,
2013-10-21 04:19:00,44.0,37.0,30.05,West,279,1.0,8.0,77,0.00,,,0.00,weatherlink.com 1.10,2013-10-21 08:19:00,
2013-10-21 04:36:00,44.1,37.0,30.05,SW,236,2.0,7.0,76,0.00,,,0.00,weatherlink.com 1.10,2013-10-21 08:36:00,
2013-10-21 04:52:00,44.4,37.0,30.05,SW,215,11.0,11.0,76,0.00,,,0.00,weatherlink.com 1.10,2013-10-21 08:52:00,
2013-10-21 05:08:00,44.0,37.0,30.05,West,272,0.0,5.0,77,0.00,,,0.00,weatherlink.com 1.10,2013-10-21 09:08:00,
2013-10-21 05:24:00,44.3,38.0,30.05,West,262,2.0,5.0,77,0.00,,,0.00,weatherlink.com 1.10,2013-10-21 09:24:00,
2013-10-21 05:41:00,44.0,37.0,30.05,WNW,284,3.0,8.0,77,0.00,,,0.00,weatherlink.com 1.10,2013-10-21 09:41:00,
2013-10-21 05:57:00,43.8,37.0,30.06,West,264,0.0,6.0,77,0.00,,,0.00,weatherlink.com 1.10,2013-10-21 09:57:00,
2013-10-21 06:13:00,43.1,37.0,30.06,West,276,0.0,7.0,79,0.00,,,0.00,weatherlink.com 1.10,2013-10-21 10:13:00,
2013-10-21 06:30:00,44.0,38.0,30.07,West,268,2.0,8.0,78,0.00,,,0.00,weatherlink.com 1.10,2013-10-21 10:30:00,
2013-10-21 06:46:00,42.3,37.0,30.07,NW,312,1.0,4.0,81,0.00,,,0.00,weatherlink.com 1.10,2013-10-21 10:46:00,
2013-10-21 07:02:00,40.9,36.0,30.07,NNE,17,0.0,2.0,84,0.00,,,0.00,weatherlink.com 1.10,2013-10-21 11:02:00,
2013-10-21 07:18:00,40.4,37.0,30.07,WSW,252,1.0,2.0,86,0.00,,,0.00,weatherlink.com 1.10,2013-10-21 11:18:00,
2013-10-21 07:34:00,40.2,37.0,30.08,SW,235,0.0,3.0,89,0.00,,,0.00,weatherlink.com 1.10,2013-10-21 11:34:00,
2013-10-21 07:51:00,39.7,38.0,30.08,NNE,18,1.0,2.0,92,0.00,,,0.00,weatherlink.com 1.10,2013-10-21 11:51:00,
2013-10-21 08:07:00,41.1,38.0,30.09,WNW,296,0.0,5.0,87,0.00,,,0.00,weatherlink.com 1.10,2013-10-21 12:07:00,
2013-10-21 08:23:00,43.9,38.0,30.09,West,279,1.0,6.0,80,0.00,,,0.00,weatherlink.com 1.10,2013-10-21 12:23:00,
2013-10-21 08:39:00,45.4,38.0,30.09,WSW,251,3.0,6.0,76,0.00,,,0.00,weatherlink.com 1.10,2013-10-21 12:39:00,
2013-10-21 08:57:00,46.3,38.0,30.09,WNW,284,0.0,7.0,74,0.00,,,0.00,weatherlink.com 1.10,2013-10-21 12:57:00,
2013-10-21 09:16:00,47.4,39.0,30.09,West,259,2.0,9.0,72,0.00,,,0.00,weatherlink.com 1.10,2013-10-21 13:16:00,
2013-10-21 09:32:00,48.0,39.0,30.09,SW,225,3.0,8.0,70,0.00,,,0.00,weatherlink.com 1.10,2013-10-21 13:32:00,
2013-10-21 09:49:00,48.5,39.0,30.09,West,272,4.0,10.0,70,0.00,,,0.00,weatherlink.com 1.10,2013-10-21 13:49:00,
2013-10-21 10:27:00,49.8,40.0,30.09,WSW,252,4.0,8.0,68,0.00,,,0.00,weatherlink.com 1.10,2013-10-21 14:27:00,
2013-10-21 10:44:00,50.3,39.0,30.09,WNW,289,2.0,10.0,66,0.00,,,0.00,weatherlink.com 1.10,2013-10-21 14:44:00,
2013-10-21 11:01:00,51.4,40.0,30.08,SW,215,3.0,8.0,66,0.00,,,0.00,weatherlink.com 1.10,2013-10-21 15:01:00,
2013-10-21 11:17:00,52.0,41.0,30.08,WSW,238,4.0,8.0,65,0.00,,,0.00,weatherlink.com 1.10,2013-10-21 15:17:00,
2013-10-21 11:33:00,52.8,41.0,30.07,WSW,242,4.0,7.0,63,0.00,,,0.00,weatherlink.com 1.10,2013-10-21 15:33:00,
2013-10-21 11:49:00,53.9,41.0,30.08,WSW,249,4.0,7.0,62,0.00,,,0.00,weatherlink.com 1.10,2013-10-21 15:49:00,
2013-10-21 12:05:00,54.4,41.0,30.07,SW,232,3.0,11.0,61,0.00,,,0.00,weatherlink.com 1.10,2013-10-21 16:05:00,
2013-10-21 12:22:00,55.3,43.0,30.07,WSW,256,3.0,8.0,63,0.00,,,0.00,weatherlink.com 1.10,2013-10-21 16:22:00,
2013-10-21 12:38:00,55.7,42.0,30.07,WSW,244,3.0,9.0,59,0.00,,,0.00,weatherlink.com 1.10,2013-10-21 16:38:00,
2013-10-21 12:54:00,56.2,42.0,30.06,WNW,282,4.0,11.0,59,0.00,,,0.00,weatherlink.com 1.10,2013-10-21 16:54:00,
2013-10-21 13:11:00,57.3,42.0,30.05,West,260,4.0,7.0,57,0.00,,,0.00,weatherlink.com 1.10,2013-10-21 17:11:00,
2013-10-21 13:27:00,57.8,42.0,30.04,NW,315,5.0,9.0,55,0.00,,,0.00,weatherlink.com 1.10,2013-10-21 17:27:00,
2013-10-21 13:43:00,58.5,43.0,30.04,WNW,298,0.0,10.0,56,0.00,,,0.00,weatherlink.com 1.10,2013-10-21 17:43:00,
2013-10-21 13:59:00,58.9,42.0,30.04,SW,217,6.0,10.0,53,0.00,,,0.00,weatherlink.com 1.10,2013-10-21 17:59:00,
2013-10-21 14:16:00,59.3,42.0,30.03,SSW,204,10.0,10.0,53,0.00,,,0.00,weatherlink.com 1.10,2013-10-21 18:16:00,
2013-10-21 14:32:00,60.5,42.0,30.02,NNW,332,0.0,7.0,51,0.00,,,0.00,weatherlink.com 1.10,2013-10-21 18:32:00,
2013-10-21 14:48:00,61.5,42.0,30.02,WSW,239,4.0,5.0,49,0.00,,,0.00,weatherlink.com 1.10,2013-10-21 18:48:00,
2013-10-21 15:04:00,60.5,42.0,30.02,WNW,295,0.0,6.0,50,0.00,,,0.00,weatherlink.com 1.10,2013-10-21 19:04:00,
2013-10-21 15:20:00,60.1,41.0,30.02,WNW,282,3.0,11.0,49,0.00,,,0.00,weatherlink.com 1.10,2013-10-21 19:20:00,
2013-10-21 15:37:00,60.3,41.0,30.01,NNW,336,2.0,6.0,49,0.00,,,0.00,weatherlink.com 1.10,2013-10-21 19:37:00,
2013-10-21 15:53:00,60.1,41.0,30.01,WSW,256,1.0,9.0,50,0.00,,,0.00,weatherlink.com 1.10,2013-10-21 19:53:00,
2013-10-21 16:09:00,60.0,42.0,30.01,NW,310,0.0,4.0,51,0.00,,,0.00,weatherlink.com 1.10,2013-10-21 20:09:00,
2013-10-21 16:26:00,60.2,42.0,30.01,WSW,257,0.0,4.0,51,0.00,,,0.00,weatherlink.com 1.10,2013-10-21 20:26:00,
2013-10-21 16:42:00,60.3,43.0,30.01,West,263,0.0,4.0,52,0.00,,,0.00,weatherlink.com 1.10,2013-10-21 20:42:00,
2013-10-21 16:58:00,60.1,42.0,30.01,WSW,258,1.0,3.0,51,0.00,,,0.00,weatherlink.com 1.10,2013-10-21 20:58:00,
2013-10-21 17:14:00,59.3,42.0,30.00,West,261,2.0,5.0,52,0.00,,,0.00,weatherlink.com 1.10,2013-10-21 21:14:00,
2013-10-21 17:31:00,58.3,42.0,30.00,West,275,1.0,2.0,55,0.00,,,0.00,weatherlink.com 1.10,2013-10-21 21:31:00,
2013-10-21 17:47:00,57.6,42.0,30.01,WSW,258,1.0,4.0,55,0.00,,,0.00,weatherlink.com 1.10,2013-10-21 21:47:00,
2013-10-21 18:03:00,57.0,41.0,30.01,WNW,284,0.0,2.0,56,0.00,,,0.00,weatherlink.com 1.10,2013-10-21 22:03:00,
2013-10-21 18:20:00,56.7,41.0,30.01,NW,304,1.0,5.0,56,0.00,,,0.00,weatherlink.com 1.10,2013-10-21 22:20:00,
2013-10-21 18:36:00,56.6,41.0,30.01,WNW,295,0.0,4.0,56,0.00,,,0.00,weatherlink.com 1.10,2013-10-21 22:36:00,
2013-10-21 18:52:00,56.1,41.0,30.01,WNW,286,2.0,4.0,57,0.00,,,0.00,weatherlink.com 1.10,2013-10-21 22:52:00,
2013-10-21 19:09:00,56.5,41.0,30.01,NNW,343,2.0,5.0,57,0.00,,,0.00,weatherlink.com 1.10,2013-10-21 23:09:00,
2013-10-21 19:25:00,56.2,41.0,30.00,West,259,2.0,7.0,57,0.00,,,0.00,weatherlink.com 1.10,2013-10-21 23:25:00,
2013-10-21 19:41:00,56.4,41.0,30.00,WSW,244,4.0,11.0,56,0.00,,,0.00,weatherlink.com 1.10,2013-10-21 23:41:00,
2013-10-21 19:57:00,56.2,40.0,30.00,WSW,244,4.0,6.0,55,0.00,,,0.00,weatherlink.com 1.10,2013-10-21 23:57:00,
2013-10-21 20:15:00,56.2,40.0,30.00,West,277,6.0,9.0,54,0.00,,,0.00,weatherlink.com 1.10,2013-10-22 00:15:00,
2013-10-21 20:31:00,55.8,40.0,29.99,West,261,1.0,6.0,56,0.00,,,0.00,weatherlink.com 1.10,2013-10-22 00:31:00,
2013-10-21 20:47:00,55.7,40.0,29.99,WNW,289,0.0,4.0,55,0.00,,,0.00,weatherlink.com 1.10,2013-10-22 00:47:00,
2013-10-21 21:03:00,55.8,40.0,29.99,WNW,292,0.0,7.0,55,0.00,,,0.00,weatherlink.com 1.10,2013-10-22 01:03:00,
2013-10-21 21:20:00,55.6,40.0,29.99,WNW,284,1.0,10.0,56,0.00,,,0.00,weatherlink.com 1.10,2013-10-22 01:20:00,
2013-10-21 21:36:00,55.3,40.0,29.98,NW,311,1.0,10.0,56,0.00,,,0.00,weatherlink.com 1.10,2013-10-22 01:36:00,
2013-10-21 21:52:00,55.0,39.0,29.98,WSW,258,5.0,15.0,55,0.00,,,0.00,weatherlink.com 1.10,2013-10-22 01:52:00,
2013-10-21 22:08:00,54.9,39.0,29.98,WSW,249,9.0,12.0,54,0.00,,,0.00,weatherlink.com 1.10,2013-10-22 02:08:00,
2013-10-21 22:25:00,54.6,39.0,29.98,WNW,283,1.0,8.0,55,0.00,,,0.00,weatherlink.com 1.10,2013-10-22 02:25:00,
2013-10-21 22:41:00,54.3,38.0,29.97,West,280,0.0,12.0,55,0.00,,,0.00,weatherlink.com 1.10,2013-10-22 02:41:00,
2013-10-21 22:57:00,53.7,39.0,29.97,WSW,237,3.0,12.0,57,0.00,,,0.00,weatherlink.com 1.10,2013-10-22 02:57:00,
2013-10-21 23:13:00,53.2,40.0,29.96,WNW,298,1.0,8.0,60,0.00,,,0.00,weatherlink.com 1.10,2013-10-22 03:13:00,
2013-10-21 23:30:00,53.1,40.0,29.96,WNW,282,1.0,10.0,60,0.00,,,0.00,weatherlink.com 1.10,2013-10-22 03:30:00,
2013-10-21 23:46:00,52.9,40.0,29.95,WSW,256,9.0,11.0,61,0.00,,,0.00,weatherlink.com 1.10,2013-10-22 03:46:00,